パンスターズ彗星

C/2020 K1 ( PanSTARRS )

English version
Home page
Updated on June 29, 2020

---------------------------------------------------------------------

・ プロフィール

発見日 2020年5月17日
発見光度 20.6等
発見者 Pan-STARRS2 1.8-m Ritchey-Chretien reflector at Haleakala

・ 写真集

・ 軌道要素

Epoch 2023 May 16.0 TT = JDT 2460080.5
T 2023 May  9.80968 TT                                  Rudenko
q   3.0742442            (2000.0)            P               Q
z  +0.0003177      Peri.  214.01023     +0.06640025     -0.03781645
 +/-0.0001575      Node    94.36983     -0.53560811     +0.84175706
e   0.9990233      Incl.   89.66712     -0.84185210     -0.53853038
From 94 observations 2020 Apr. 17-June 14, mean residual 0".3.

・ 星図

・ 光度変化

        m1 = 5.3 + 5 logΔ + 10.0 log r

---------------------------------------------------------------------

軌道要素はM.P.E.C. 2020-M114に掲載されたものです。
星図はステラナビゲータ Ver.10 (アストロアーツ) で作成したものです。
光度グラフはComet for Windowsで作成したものです。

---------------------------------------------------------------------

Copyright(C) Seiichi Yoshida (comet@aerith.net). All rights reserved.